SCP
0 0 0 0 0 0 0 0 0 0 0 0 0 0 0 0 0 0 0 0 0 0 0 0 0 0 0 0 0 0 0 0 0 0 0 0 0 0 0 0 0 0 0 0
0 0 0 0 0 0 0 0 0 0 0 0 0 0 0 0 0 0 0 0 0 0 0 0 0 0 0 0 0 0 0 0 0 0 0 0 0 0 0 0 0 0 0 0
0 0 0 0 0 0 0 0 0 0 0 0 0 0 0 0 0 0 0 0 0 0 0 0 0 0 0 0 0 0 0 1 0 0 0 0 0 0 0 0 0 0 0 0
0 0 0 0 0 0 0 0 0 0 0 0 0 0 0 0 0 0 0 0 0 0 0 0 0 0 0 0 0 1 1 1 1 0 0 0 0 0 0 0 0 0 0 0
0 0 0 0 0 0 0 0 0 0 0 0 0 0 0 0 0 0 0 0 0 0 0 0 0 0 1 1 1 1 1 1 1 1 0 0 0 0 0 0 0 0 0 0
0 0 0 0 0 0 0 0 0 0 0 0 0 0 0 0 0 0 0 0 0 0 0 0 0 1 1 1 1 1 1 1 1 1 0 0 0 0 0 0 0 0 0 0
0 0 0 0 0 0 0 0 0 0 0 0 0 0 0 0 0 0 0 0 0 0 0 1 1 1 1 1 1 1 1 1 1 1 1 1 1 0 0 0 0 0 0 0
0 0 0 0 0 0 -0 0 0 0 0 0 0 0 0 0 0 0 0 0 0 0 0 1 1 1 1 1 1 1 1 1 1 1 1 1 1 1 0 0 0 0 0 0
0 0 0 0 0 -0 -0 -0 0 0 0 0 0 0 0 0 0 0 0 0 0 0 0 0 1 1 1 1 1 1 1 1 1 1 1 1 1 1 1 0 0 0 0 0
0 0 0 0 0 0 0 0 0 0 0 0 0 0 0 0 0 0 0 0 0 0 0 0 0 1 1 1 1 1 1 1 1 1 1 1 1 1 1 0 0 0 0 0
0 0 0 0 0 0 0 0 0 0 0 0 0 0 0 0 0 0 0 0 0 0 0 0 1 1 1 1 1 1 1 1 1 1 1 0 0 0 0 0 0 0 0 0
0 0 0 0 0 0 0 0 0 0 0 0 0 0 0 0 0 0 0 0 0 0 0 1 1 1 1 1 1 1 1 1 1 1 0 0 0 0 0 0 0 0 0 0
0 0 0 0 0 0 0 0 0 0 0 0 0 0 0 0 0 0 0 0 0 0 1 1 1 1 1 1 1 1 1 1 1 1 1 0 0 0 0 0 0 0 0 0
0 0 0 0 0 0 0 0 0 0 0 0 0 0 0 0 0 0 0 0 0 1 1 1 1 1 1 1 1 1 1 1 1 1 1 1 1 0 0 0 0 0 0 0
0 0 0 0 0 0 0 0 0 0 0 0 0 0 0 0 0 0 0 0 1 1 1 1 1 1 1 1 1 1 1 1 1 1 1 1 1 1 1 1 1 1 0 0
0 0 0 0 0 0 0 0 0 0 0 0 0 0 0 0 0 0 0 1 1 1 1 1 1 1 1 1 1 1 1 1 1 1 1 1 1 1 1 1 1 1 1 0
0 0 0 0 0 0 0 0 0 0 0 0 0 0 0 0 0 0 1 1 1 1 1 1 1 1 1 1 1 1 1 1 1 1 1 1 1 1 1 1 1 1 1 1
0 0 0 0 0 0 0 0 0 0 0 0 0 0 0 0 0 0 1 1 1 1 1 1 1 1 1 1 1 1 1 1 1 1 1 1 1 1 1 1 1 1 1 1
0 0 0 0 0 0 0 0 0 0 0 0 0 0 0 0 0 0 1 1 1 1 1 1 1 1 1 1 1 1 1 1 1 1 1 1 1 1 1 1 1 1 1 1
0 0 0 0 0 0 0 0 0 0 0 0 0 0 0 0 0 0 1 1 1 1 1 1 1 1 1 1 1 1 1 1 1 1 1 1 1 1 1 1 1 1 1 1
0 0 0 0 0 0 0 0 0 0 0 0 0 0 0 0 0 1 1 1 1 1 1 1 1 1 1 1 1 1 1 1 1 1 1 1 1 1 1 1 1 1 1 1
0 0 0 0 0 0 0 0 0 0 0 0 0 0 0 0 1 1 1 1 1 1 1 1 1 1 1 1 1 1 1 1 1 1 1 1 1 1 1 1 1 1 1 1
0 0 0 0 0 0 0 0 0 0 0 0 0 0 0 0 1 1 1 1 1 1 1 1 1 1 1 1 1 1 1 1 1 1 1 2 1 1 1 1 2 2 2 1
0 0 0 0 0 0 0 0 1 1 1 1 0 0 0 0 1 1 1 1 1 1 1 1 1 1 1 1 1 1 1 1 1 1 1 1 1 1 1 1 2 1 1 1
0 0 0 0 0 0 1 1 1 1 1 1 1 1 1 1 1 1 1 1 2 2 2 2 1 1 1 1 1 1 1 1 1 1 1 1 1 1 1 1 1 1 1 1
0 0 0 0 0 1 1 1 1 1 1 1 1 1 1 1 1 1 1 1 2 2 2 2 2 1 1 2 2 1 1 1 1 1 1 1 1 1 1 1 1 1 1 1
Wind_Speed
6 10 10 9 8 4 5 6 5 3 3 6 7 6 6 9 10 10 10 10 10 9 9 9 8 8 7 7 7 6 5 4 3 2 2 2 2 2 1 1 1 1 1 1
9 11 6 4 5 6 7 7 6 4 3 5 5 7 6 8 11 10 10 11 11 10 10 10 9 9 9 8 7 7 6 5 5 3 2 1 1 1 1 0 1 1 1 1
11 5 6 8 9 9 9 8 6 4 4 6 6 7 7 7 9 9 10 10 11 11 11 11 11 10 10 9 9 7 6 6 5 4 3 2 2 2 2 1 1 1 1 1
7 5 8 11 10 10 9 5 5 6 7 5 6 6 7 7 9 10 10 10 10 11 11 11 11 11 11 10 9 8 7 6 6 6 4 4 3 2 1 1 0 0 1 1
8 8 10 11 8 8 4 5 6 7 7 7 7 9 4 6 7 8 9 9 9 10 11 11 11 11 10 9 9 8 8 7 7 6 5 5 4 2 2 1 1 1 1 1
5 5 6 6 5 6 7 7 6 7 9 10 7 8 5 4 5 4 6 8 9 9 10 10 10 9 9 9 9 9 8 8 7 7 6 5 4 3 2 2 1 2 1 1
9 9 7 6 9 9 10 10 7 8 8 7 4 8 4 1 1 2 3 5 7 9 10 10 10 10 10 10 9 9 9 8 8 7 6 6 5 4 4 3 2 2 1 1
11 12 10 9 9 9 12 13 9 7 7 6 7 8 2 2 1 2 3 4 6 9 9 10 10 10 10 10 10 10 10 9 8 8 7 6 5 4 3 3 3 2 2 1
9 9 9 7 6 8 11 12 9 9 8 8 6 5 4 4 4 4 4 5 6 7 9 10 10 10 10 10 10 10 10 9 8 7 7 6 5 4 3 3 3 2 2 2
5 7 9 8 7 5 7 8 8 9 8 10 8 9 5 7 6 5 5 5 5 6 8 9 9 9 9 8 8 9 9 8 8 7 7 5 6 5 4 3 2 2 2 2
8 8 9 10 11 11 9 11 9 8 9 10 8 5 2 3 4 5 5 4 5 6 6 7 7 8 8 8 8 8 9 8 8 7 6 6 5 5 4 3 3 2 2 2
8 9 9 10 5 6 10 11 12 10 8 9 10 3 5 2 3 4 4 4 4 4 5 5 7 8 8 8 8 7 7 8 7 7 6 6 5 4 4 3 3 2 2 2
5 8 10 10 10 9 11 11 12 11 9 10 12 5 6 3 2 3 4 4 4 4 4 5 6 7 7 7 7 7 7 7 7 7 7 6 5 4 4 3 3 2 2 2
6 8 11 11 7 10 11 12 12 12 11 11 12 9 4 4 3 3 3 4 4 4 4 5 5 6 6 7 7 7 7 7 6 6 6 6 5 4 4 3 3 2 2 2
7 9 11 10 7 9 11 13 14 15 14 12 10 10 6 4 4 3 4 5 5 5 5 5 5 5 6 7 7 7 6 6 6 6 5 5 5 4 4 3 3 2 2 1
5 7 10 11 10 11 12 14 14 15 14 14 13 11 5 3 4 4 5 6 6 5 5 5 5 5 6 7 8 7 7 6 6 6 6 5 5 4 4 3 3 3 2 1
6 6 9 12 11 12 16 15 14 13 13 13 13 9 5 5 5 5 6 7 6 6 5 5 6 5 6 7 7 7 7 7 7 6 6 6 5 5 4 4 3 3 3 2
7 8 8 10 10 17 9 7 10 11 11 11 10 8 6 5 5 4 4 5 6 5 5 5 5 5 5 6 7 7 7 8 7 6 6 5 5 5 5 4 4 3 3 2
9 9 8 9 13 14 8 8 10 11 10 8 8 7 5 5 5 5 4 4 4 4 4 4 5 5 5 6 7 7 7 7 7 7 6 6 5 5 5 5 4 3 3 3
9 10 10 10 13 14 9 7 6 9 11 7 7 7 6 6 8 4 3 3 3 4 4 4 5 5 5 6 6 7 7 7 6 6 6 5 5 5 5 5 4 4 3 3
11 11 14 13 13 10 3 5 8 12 5 3 5 6 6 6 4 1 4 4 4 4 4 4 5 5 4 5 6 7 6 5 5 5 5 5 5 5 5 4 4 4 4 4
11 10 12 12 14 10 4 6 7 2 2 2 4 5 5 5 4 3 5 5 5 5 5 5 5 5 5 5 7 7 6 5 5 5 5 5 4 4 4 5 4 4 4 5
9 8 7 7 6 2 1 3 1 2 2 2 3 4 5 6 5 4 5 5 5 5 5 4 5 6 5 5 6 6 6 5 5 5 5 5 5 4 4 5 5 5 5 4
5 5 6 6 5 3 3 3 2 2 3 2 2 3 4 5 5 4 4 5 5 5 5 4 5 6 6 5 5 5 6 6 6 6 5 5 5 5 4 3 4 3 3 4
4 5 6 8 5 4 4 3 2 1 1 1 2 3 4 4 4 4 4 5 5 5 4 4 4 5 6 6 6 6 6 6 6 6 6 5 5 4 4 3 1 1 1 0
7 7 7 5 2 4 3 2 2 2 1 1 1 2 3 4 4 4 4 4 4 5 4 4 4 5 5 6 6 5 6 7 6 6 6 5 4 4 4 4 4 4 3 4
Wind_Direction
194 213 209 204 222 243 211 216 198 162 151 219 228 230 189 183 198 200 195 193 194 195 182 181 184 185 183 183 185 188 194 187 200 199 206 193 181 186 166 163 127 206 218 224
198 213 205 186 196 210 205 211 196 163 159 239 244 241 214 194 206 206 202 201 199 194 187 184 186 189 192 190 191 191 196 193 199 190 196 206 189 191 151 122 120 251 223 241
218 173 167 185 189 204 213 221 211 195 179 213 250 224 202 192 204 209 212 210 207 200 196 189 190 193 194 193 194 195 196 193 197 190 190 174 180 203 180 183 175 221 266 264
212 167 185 195 197 210 208 211 214 207 224 212 242 251 186 191 197 202 208 209 210 204 200 194 192 193 196 194 190 190 190 192 192 194 198 197 200 198 185 217 140 188 253 276
185 180 192 201 198 213 197 170 205 221 239 249 223 261 203 183 208 204 202 205 207 203 199 196 194 192 194 191 186 184 182 186 190 196 197 205 209 204 191 193 153 243 209 259
177 183 212 203 181 188 151 164 187 224 240 241 237 255 242 185 218 209 193 198 202 199 196 194 188 185 187 187 185 183 180 185 188 194 198 208 210 214 215 221 211 221 213 230
184 187 183 187 177 178 197 202 209 214 221 230 202 246 258 91 214 228 200 193 193 191 188 187 185 184 187 187 187 185 183 187 188 193 200 203 209 211 219 233 216 247 256 234
196 190 184 196 212 200 210 224 236 242 237 213 192 238 209 124 181 201 202 189 183 183 182 185 186 186 187 186 187 188 186 189 188 193 198 203 207 213 215 230 248 232 260 274
208 192 167 190 215 223 207 226 244 251 253 253 221 218 206 170 186 189 184 178 177 181 182 185 186 185 186 186 188 190 186 187 188 190 193 199 203 211 220 220 233 236 249 259
229 200 176 175 190 214 246 219 220 237 245 246 233 227 222 181 189 181 182 177 168 176 182 183 184 185 185 185 183 183 180 180 183 186 193 191 197 203 213 219 225 242 254 274
228 216 181 189 209 200 198 211 228 234 249 253 249 230 132 185 187 192 186 178 174 181 179 177 180 183 182 179 174 175 176 175 178 184 188 195 192 193 195 205 217 227 240 244
221 230 211 203 199 247 225 221 218 227 228 247 264 239 109 157 190 194 182 172 169 177 176 174 175 177 177 175 172 170 173 175 175 177 182 185 184 186 194 203 223 229 235 244
205 226 213 198 194 202 216 217 223 234 235 240 248 235 127 157 199 191 179 165 164 168 170 169 168 170 174 174 172 172 173 174 176 177 179 177 181 185 193 201 207 213 218 230
239 232 238 233 216 194 205 210 219 227 235 238 244 254 211 207 213 188 182 180 173 170 172 165 163 166 171 173 175 175 173 172 171 175 179 178 182 185 189 189 185 192 205 210
234 232 238 253 250 222 219 215 216 228 244 253 252 255 249 233 234 212 196 193 186 183 180 173 171 166 171 174 173 175 172 168 170 172 176 177 176 175 179 176 171 169 182 188
240 241 234 238 234 233 229 222 223 231 241 249 255 253 255 247 231 218 206 201 197 193 189 182 176 170 172 176 176 173 172 172 171 172 172 169 172 169 170 167 157 149 150 159
217 230 232 233 222 232 234 227 226 231 235 242 247 252 250 245 235 226 211 205 204 200 193 188 181 178 177 177 175 175 172 168 168 171 173 171 174 174 176 174 161 158 162 164
229 234 236 236 218 231 235 221 228 233 237 238 246 248 244 246 232 227 214 200 199 194 189 183 179 173 173 172 170 173 169 166 167 172 175 175 177 174 168 168 164 169 172 167
222 224 234 233 228 233 218 209 217 223 231 231 239 243 237 228 217 208 190 180 183 181 181 177 174 166 165 166 164 164 167 166 170 178 180 177 176 173 167 169 167 167 167 158
199 217 231 230 236 235 221 184 207 230 230 217 225 230 232 224 231 196 154 159 159 158 161 164 161 158 162 161 158 162 165 163 169 175 176 172 171 175 175 170 168 165 168 163
192 207 223 229 236 240 215 176 193 224 228 197 220 225 225 223 261 170 154 157 156 152 148 150 151 150 150 155 156 162 161 163 164 162 159 160 170 174 171 164 160 163 164 150
211 213 217 226 233 228 167 188 215 269 360 227 221 218 213 210 211 166 142 144 148 149 142 145 146 144 143 150 156 156 153 152 147 146 145 148 161 171 161 160 159 163 164 156
231 237 232 231 242 5 203 227 300 313 276 264 237 220 207 202 188 163 148 146 148 144 138 142 141 139 139 150 158 156 152 149 145 145 143 146 152 159 163 167 168 171 178 179
218 248 241 232 227 240 244 247 251 267 267 268 241 222 202 194 183 164 152 151 152 145 139 143 143 144 145 153 159 154 148 151 151 151 153 159 161 159 157 175 179 182 183 184
256 227 228 230 229 228 224 240 254 250 243 227 217 207 201 191 182 168 164 162 158 151 144 148 147 145 148 149 152 151 150 155 158 158 160 165 165 157 160 155 129 187 125 36
236 241 244 245 239 252 257 273 272 262 261 239 218 202 195 189 182 174 170 165 163 157 151 154 147 147 152 149 150 153 158 165 171 172 172 172 173 164 170 161 145 64 60 80